TimeEST,TemperatureF,Dew PointF,Humidity,Sea Level PressureIn,VisibilityMPH,Wind Direction,Wind SpeedMPH,Gust SpeedMPH,PrecipitationIn,Events,Conditions,WindDirDegrees,DateUTC
12:55 AM,37.9,30.9,76,29.96,7.0,East,10.4,-,N/A,,Overcast,80,2012-12-20 05:55:00
1:45 AM,37.4,32.0,81,29.93,5.0,East,10.4,-,0.00,Rain,Light Rain,80,2012-12-20 06:45:00
1:55 AM,37.9,32.0,79,29.94,4.0,East,13.8,19.6,0.01,Rain,Light Rain,80,2012-12-20 06:55:00
2:31 AM,35.6,32.0,87,29.89,2.5,East,13.8,-,0.06,Snow,Light Snow,80,2012-12-20 07:31:00
2:50 AM,35.6,32.0,87,29.87,2.5,ENE,13.8,-,0.11,Rain,Rain,60,2012-12-20 07:50:00
2:55 AM,35.1,32.0,89,29.90,2.5,ENE,11.5,-,0.11,Rain,Light Rain,70,2012-12-20 07:55:00
3:03 AM,35.6,32.0,87,29.87,4.0,ENE,12.7,-,0.00,Rain,Light Rain,70,2012-12-20 08:03:00
3:28 AM,35.6,32.0,87,29.86,3.0,ENE,13.8,-,0.02,Rain,Light Rain,70,2012-12-20 08:28:00
3:38 AM,35.6,32.0,87,29.85,3.0,East,11.5,-,0.03,Rain,Light Rain,80,2012-12-20 08:38:00
3:53 AM,35.6,32.0,87,29.85,2.5,ESE,13.8,-,0.04,Snow,Light Snow,110,2012-12-20 08:53:00
3:55 AM,35.1,32.0,89,29.86,2.0,ESE,12.7,-,0.04,Snow,Light Snow,110,2012-12-20 08:55:00
4:03 AM,33.8,32.0,93,29.83,1.2,East,12.7,-,0.01,Snow,Light Snow,90,2012-12-20 09:03:00
4:22 AM,33.8,30.2,87,29.81,2.5,East,13.8,-,0.04,Snow,Light Snow,80,2012-12-20 09:22:00
4:31 AM,35.6,32.0,87,29.79,4.0,East,15.0,-,0.04,Snow,Light Snow,80,2012-12-20 09:31:00
4:43 AM,33.8,32.0,93,29.79,1.8,East,15.0,-,0.04,Snow,Light Snow,80,2012-12-20 09:43:00
4:55 AM,34.0,30.9,89,29.80,1.5,East,13.8,-,0.07,Snow,Light Snow,80,2012-12-20 09:55:00
5:10 AM,33.8,30.2,87,29.76,2.0,East,15.0,25.3,0.01,Snow,Light Snow,90,2012-12-20 10:10:00
5:24 AM,35.6,30.2,81,29.74,1.8,East,18.4,24.2,0.03,Snow,Light Snow,90,2012-12-20 10:24:00
5:45 AM,35.6,30.2,81,29.71,2.5,East,17.3,26.5,0.05,Snow,Light Snow,90,2012-12-20 10:45:00
5:55 AM,35.1,32.0,89,29.70,2.0,East,21.9,36.8,0.07,Snow,Light Snow,90,2012-12-20 10:55:00
6:10 AM,35.6,32.0,87,29.67,3.0,East,20.7,32.2,0.05,Rain,Rain,80,2012-12-20 11:10:00
6:17 AM,35.6,32.0,87,29.66,4.0,East,23.0,32.2,0.06,Rain,Light Rain,80,2012-12-20 11:17:00
6:52 AM,35.6,32.0,87,29.62,4.0,East,20.7,31.1,0.16,Rain,Rain,90,2012-12-20 11:52:00
6:55 AM,36.0,32.0,86,29.63,4.0,East,19.6,28.8,0.17,Rain,Rain,90,2012-12-20 11:55:00
7:55 AM,37.0,33.1,86,29.55,5.0,East,20.7,32.2,0.09,Rain,Light Rain,100,2012-12-20 12:55:00
8:55 AM,37.9,34.0,86,29.52,4.0,East,20.7,25.3,0.13,Rain,Rain,90,2012-12-20 13:55:00
9:55 AM,39.0,35.1,86,29.48,3.0,East,20.7,32.2,0.13,Rain,Rain,100,2012-12-20 14:55:00
10:55 AM,39.0,36.0,89,29.38,5.0,East,25.3,32.2,0.09,Rain,Light Rain,90,2012-12-20 15:55:00
11:55 AM,39.9,36.0,86,29.37,10.0,East,15.0,24.2,0.01,,Overcast,100,2012-12-20 16:55:00
12:55 PM,41.0,37.0,86,29.27,7.0,East,13.8,-,0.00,,Overcast,80,2012-12-20 17:55:00
1:55 PM,41.0,37.9,89,29.21,6.0,East,12.7,20.7,0.01,Rain,Light Rain,90,2012-12-20 18:55:00
2:32 PM,41.0,37.4,87,29.16,2.5,East,10.4,-,0.03,Rain,Light Rain,90,2012-12-20 19:32:00
2:40 PM,41.0,37.4,87,29.16,4.0,East,15.0,-,0.03,Rain,Light Rain,80,2012-12-20 19:40:00
2:55 PM,42.1,37.9,85,29.15,5.0,East,13.8,-,0.03,Rain,Light Rain,80,2012-12-20 19:55:00
3:24 PM,42.8,37.4,81,29.12,2.0,East,12.7,-,0.01,Rain,Light Rain,80,2012-12-20 20:24:00
3:33 PM,42.8,39.2,87,29.11,1.8,East,10.4,19.6,N/A,Rain,Rain,80,2012-12-20 20:33:00
3:55 PM,42.1,39.0,89,29.10,1.0,East,15.0,-,0.15,Rain,Heavy Rain,80,2012-12-20 20:55:00
4:10 PM,42.8,39.2,87,29.09,2.0,East,12.7,23.0,0.07,Rain,Light Rain,90,2012-12-20 21:10:00
4:18 PM,42.8,39.2,87,29.08,8.0,East,12.7,-,0.07,Rain,Light Rain,80,2012-12-20 21:18:00
4:55 PM,44.1,41.0,89,29.08,10.0,East,12.7,-,0.07,,Overcast,100,2012-12-20 21:55:00
5:19 PM,44.6,42.8,93,29.09,2.5,SSW,9.2,-,0.03,Rain,Rain,200,2012-12-20 22:19:00
5:25 PM,44.6,42.8,93,29.09,3.0,SSE,9.2,-,0.05,Rain,Light Rain,160,2012-12-20 22:25:00
5:39 PM,44.6,42.8,93,29.10,3.0,South,15.0,-,0.07,Rain,Rain,170,2012-12-20 22:39:00
5:48 PM,46.4,42.8,87,29.09,4.0,South,11.5,-,0.10,Rain,Rain,190,2012-12-20 22:48:00
5:55 PM,46.0,43.0,89,29.10,5.0,South,10.4,-,0.12,Rain,Light Rain,180,2012-12-20 22:55:00
6:11 PM,46.4,42.8,87,29.09,6.0,South,10.4,-,0.02,Rain,Light Rain,170,2012-12-20 23:11:00
6:55 PM,46.0,39.9,79,29.09,10.0,South,12.7,-,0.02,,Overcast,190,2012-12-20 23:55:00
7:55 PM,44.1,36.0,73,29.10,10.0,South,16.1,23.0,0.00,,Overcast,190,2012-12-21 00:55:00
8:22 PM,42.8,35.6,76,29.09,10.0,South,12.7,21.9,N/A,,Overcast,180,2012-12-21 01:22:00
8:55 PM,43.0,35.1,74,29.10,10.0,South,12.7,26.5,N/A,,Overcast,170,2012-12-21 01:55:00
9:55 PM,42.1,35.1,76,29.10,10.0,South,11.5,23.0,N/A,,Overcast,170,2012-12-21 02:55:00
10:55 PM,41.0,34.0,76,29.13,10.0,ESE,6.9,-,N/A,,Overcast,110,2012-12-21 03:55:00
11:51 PM,39.2,35.6,87,29.17,4.0,NNW,18.4,24.2,0.01,Rain,Light Rain,340,2012-12-21 04:51:00
11:55 PM,37.0,33.1,86,29.19,6.0,NNW,20.7,25.3,0.01,Rain,Light Rain,340,2012-12-21 04:55:00